Location: Frizzleburg
(41.0764°N, 80.4548°W)
Time: 17:55:29
(UTC+00:00)

Meteor 1-26 Rocket - Pass Details

Date: 17 November 2019
Orbit: 816 x 919 km, 81.3° (Epoch: 15 December)

Event Time Altitude Azimuth Distance (km) Brightness Sun altitude
Rises 00:11:28 0° 178° (S) 3,540 7.5 -24.3°
Reaches altitude 10° 00:13:56 10° 175° (S) 2,605 6.7 -24.8°
Enters shadow 00:19:25 62° 117° (ESE) 1,027 4.3 -25.8°
